Time,TemperatureF,DewpointF,PressureIn,WindDirection,WindDirectionDegrees,WindSpeedMPH,WindSpeedGustMPH,Humidity,HourlyPrecipIn,Conditions,Clouds,dailyrainin,SoftwareType,DateUTC
2013-05-18 00:00:00,44.0,43.0,30.24,North,5,0.0,0.0,96,-99.99,,,-99.99,,2013-05-18 04:00:00,
2013-05-18 00:23:00,44.0,43.0,30.24,North,5,0.0,0.0,96,-99.99,,,-99.99,,2013-05-18 04:23:00,
2013-05-18 00:33:00,44.0,43.0,30.24,North,5,0.0,0.0,96,-99.99,,,-99.99,,2013-05-18 04:33:00,
2013-05-18 01:00:00,43.0,42.0,30.24,East,101,0.0,0.0,98,-99.99,,,-99.99,,2013-05-18 05:00:00,
2013-05-18 01:22:00,43.0,42.0,30.24,East,101,0.0,0.0,98,-99.99,,,-99.99,,2013-05-18 05:22:00,
2013-05-18 01:32:00,43.0,42.0,30.24,East,101,0.0,0.0,98,-99.99,,,-99.99,,2013-05-18 05:32:00,
2013-05-18 01:42:00,43.0,42.0,30.24,East,101,0.0,0.0,98,-99.99,,,-99.99,,2013-05-18 05:42:00,
2013-05-18 01:52:00,43.0,42.0,30.24,East,101,0.0,0.0,98,-99.99,,,-99.99,,2013-05-18 05:52:00,
2013-05-18 02:00:00,42.0,41.0,30.24,NNW,338,0.0,1.0,98,-99.99,,,-99.99,,2013-05-18 06:00:00,
2013-05-18 02:32:00,42.0,41.0,30.24,NNW,338,0.0,1.0,98,-99.99,,,-99.99,,2013-05-18 06:32:00,
2013-05-18 02:42:00,42.0,41.0,30.24,NNW,338,0.0,1.0,98,-99.99,,,-99.99,,2013-05-18 06:42:00,
2013-05-18 02:52:00,42.0,41.0,30.24,NNW,338,0.0,1.0,98,-99.99,,,-99.99,,2013-05-18 06:52:00,
2013-05-18 03:00:00,43.0,42.0,30.24,NW,314,0.0,0.0,99,-99.99,,,-99.99,,2013-05-18 07:00:00,
2013-05-18 03:32:00,43.0,42.0,30.24,NW,314,0.0,0.0,99,-99.99,,,-99.99,,2013-05-18 07:32:00,
2013-05-18 03:43:00,43.0,42.0,30.24,NW,314,0.0,0.0,99,-99.99,,,-99.99,,2013-05-18 07:43:00,
2013-05-18 03:53:00,43.0,42.0,30.24,NW,314,0.0,0.0,99,-99.99,,,-99.99,,2013-05-18 07:53:00,
2013-05-18 04:00:00,44.0,44.0,30.24,NNW,334,2.0,4.0,97,-99.99,,,-99.99,,2013-05-18 08:00:00,
2013-05-18 04:33:00,44.0,44.0,30.24,NNW,334,2.0,4.0,97,-99.99,,,-99.99,,2013-05-18 08:33:00,
2013-05-18 04:42:00,44.0,44.0,30.24,NNW,334,2.0,4.0,97,-99.99,,,-99.99,,2013-05-18 08:42:00,
2013-05-18 04:52:00,44.0,44.0,30.24,NNW,334,2.0,4.0,97,-99.99,,,-99.99,,2013-05-18 08:52:00,
2013-05-18 05:00:00,45.0,44.0,30.27,ESE,112,0.0,2.0,96,-99.99,,,-99.99,,2013-05-18 09:00:00,
2013-05-18 05:22:00,45.0,44.0,30.27,ESE,112,0.0,2.0,96,-99.99,,,-99.99,,2013-05-18 09:22:00,
2013-05-18 05:33:00,45.0,44.0,30.27,ESE,112,0.0,2.0,96,-99.99,,,-99.99,,2013-05-18 09:33:00,
2013-05-18 05:43:00,45.0,44.0,30.27,ESE,112,0.0,2.0,96,-99.99,,,-99.99,,2013-05-18 09:43:00,
2013-05-18 05:53:00,45.0,44.0,30.27,ESE,112,0.0,2.0,96,-99.99,,,-99.99,,2013-05-18 09:53:00,
2013-05-18 06:00:00,47.0,45.0,30.27,North,354,0.0,0.0,96,-99.99,,,-99.99,,2013-05-18 10:00:00,
2013-05-18 06:23:00,47.0,45.0,30.27,North,354,0.0,0.0,96,-99.99,,,-99.99,,2013-05-18 10:23:00,
2013-05-18 06:33:00,47.0,45.0,30.27,North,354,0.0,0.0,96,-99.99,,,-99.99,,2013-05-18 10:33:00,
2013-05-18 06:42:00,47.0,45.0,30.27,North,354,0.0,0.0,96,-99.99,,,-99.99,,2013-05-18 10:42:00,
2013-05-18 06:53:00,47.0,45.0,30.27,North,354,0.0,0.0,96,-99.99,,,-99.99,,2013-05-18 10:53:00,
2013-05-18 07:00:00,48.0,46.0,30.30,NE,34,0.0,0.0,94,-99.99,,,-99.99,,2013-05-18 11:00:00,
2013-05-18 07:22:00,48.0,46.0,30.30,NE,34,0.0,0.0,94,-99.99,,,-99.99,,2013-05-18 11:22:00,
2013-05-18 07:33:00,48.0,46.0,30.30,NE,34,0.0,0.0,94,-99.99,,,-99.99,,2013-05-18 11:33:00,
2013-05-18 07:42:00,48.0,46.0,30.30,NE,34,0.0,0.0,94,-99.99,,,-99.99,,2013-05-18 11:42:00,
2013-05-18 07:52:00,48.0,46.0,30.30,NE,34,0.0,0.0,94,-99.99,,,-99.99,,2013-05-18 11:52:00,
2013-05-18 08:00:00,51.0,47.0,30.30,North,6,0.0,2.0,88,-99.99,,,-99.99,,2013-05-18 12:00:00,
2013-05-18 08:33:00,51.0,47.0,30.30,North,6,0.0,2.0,88,-99.99,,,-99.99,,2013-05-18 12:33:00,
2013-05-18 08:42:00,51.0,47.0,30.30,North,6,0.0,2.0,88,-99.99,,,-99.99,,2013-05-18 12:42:00,
2013-05-18 08:52:00,51.0,47.0,30.30,North,6,0.0,2.0,88,-99.99,,,-99.99,,2013-05-18 12:52:00,
2013-05-18 09:00:00,53.0,47.0,30.30,ENE,70,0.0,-999.0,79,-99.99,,,-99.99,,2013-05-18 13:00:00,
2013-05-18 09:21:00,53.0,47.0,30.30,ENE,70,0.0,-999.0,79,-99.99,,,-99.99,,2013-05-18 13:21:00,
2013-05-18 09:33:00,53.0,47.0,30.30,ENE,70,0.0,-999.0,79,-99.99,,,-99.99,,2013-05-18 13:33:00,
2013-05-18 09:43:00,53.0,47.0,30.30,ENE,70,0.0,-999.0,79,-99.99,,,-99.99,,2013-05-18 13:43:00,
2013-05-18 09:53:00,53.0,47.0,30.30,ENE,70,0.0,-999.0,79,-99.99,,,-99.99,,2013-05-18 13:53:00,
2013-05-18 10:00:00,57.0,49.0,30.30,ENE,76,0.0,3.0,76,-99.99,,,-99.99,,2013-05-18 14:00:00,
2013-05-18 10:22:00,57.0,49.0,30.30,ENE,76,0.0,3.0,76,-99.99,,,-99.99,,2013-05-18 14:22:00,
2013-05-18 10:33:00,57.0,49.0,30.30,ENE,76,0.0,3.0,76,-99.99,,,-99.99,,2013-05-18 14:33:00,
2013-05-18 10:42:00,57.0,49.0,30.30,ENE,76,0.0,3.0,76,-99.99,,,-99.99,,2013-05-18 14:42:00,
2013-05-18 10:54:00,57.0,49.0,30.30,ENE,76,0.0,3.0,76,-99.99,,,-99.99,,2013-05-18 14:54:00,
2013-05-18 11:00:00,62.0,45.0,30.30,NE,41,0.0,3.0,55,-99.99,,,-99.99,,2013-05-18 15:00:00,
2013-05-18 11:23:00,62.0,45.0,30.30,NE,41,0.0,3.0,55,-99.99,,,-99.99,,2013-05-18 15:23:00,
2013-05-18 11:33:00,62.0,45.0,30.30,NE,41,0.0,3.0,55,-99.99,,,-99.99,,2013-05-18 15:33:00,
2013-05-18 11:43:00,62.0,45.0,30.30,NE,41,0.0,3.0,55,-99.99,,,-99.99,,2013-05-18 15:43:00,
2013-05-18 11:54:00,62.0,45.0,30.30,NE,41,0.0,3.0,55,-99.99,,,-99.99,,2013-05-18 15:54:00,
2013-05-18 12:00:00,63.0,45.0,30.30,SSE,161,2.0,8.0,51,-99.99,,,-99.99,,2013-05-18 16:00:00,
2013-05-18 12:33:00,63.0,45.0,30.30,SSE,161,2.0,8.0,51,-99.99,,,-99.99,,2013-05-18 16:33:00,
2013-05-18 12:42:00,63.0,45.0,30.30,SSE,161,2.0,8.0,51,-99.99,,,-99.99,,2013-05-18 16:42:00,
2013-05-18 12:52:00,63.0,45.0,30.30,SSE,161,2.0,8.0,51,-99.99,,,-99.99,,2013-05-18 16:52:00,
2013-05-18 13:00:00,63.0,45.0,30.30,SSE,150,7.0,9.0,52,-99.99,,,-99.99,,2013-05-18 17:00:00,
2013-05-18 13:22:00,63.0,45.0,30.30,SSE,150,7.0,9.0,52,-99.99,,,-99.99,,2013-05-18 17:22:00,
2013-05-18 13:33:00,63.0,45.0,30.30,SSE,150,7.0,9.0,52,-99.99,,,-99.99,,2013-05-18 17:33:00,
2013-05-18 13:42:00,63.0,45.0,30.30,SSE,150,7.0,9.0,52,-99.99,,,-99.99,,2013-05-18 17:42:00,
2013-05-18 13:52:00,63.0,45.0,30.30,SSE,150,7.0,9.0,52,-99.99,,,-99.99,,2013-05-18 17:52:00,
2013-05-18 14:00:00,61.0,50.0,30.30,SE,129,3.0,7.0,65,-99.99,,,-99.99,,2013-05-18 18:00:00,
2013-05-18 14:22:00,61.0,50.0,30.30,SE,129,3.0,7.0,65,-99.99,,,-99.99,,2013-05-18 18:22:00,
2013-05-18 14:32:00,61.0,50.0,30.30,SE,129,3.0,7.0,65,-99.99,,,-99.99,,2013-05-18 18:32:00,
2013-05-18 14:42:00,61.0,50.0,30.30,SE,129,3.0,7.0,65,-99.99,,,-99.99,,2013-05-18 18:42:00,
2013-05-18 14:52:00,61.0,50.0,30.30,SE,129,3.0,7.0,65,-99.99,,,-99.99,,2013-05-18 18:52:00,
2013-05-18 15:00:00,58.0,55.0,30.30,NNW,332,0.0,5.0,90,-99.99,,,-99.99,,2013-05-18 19:00:00,
2013-05-18 15:22:00,58.0,55.0,30.30,NNW,332,0.0,5.0,90,-99.99,,,-99.99,,2013-05-18 19:22:00,
2013-05-18 15:32:00,58.0,55.0,30.30,NNW,332,0.0,5.0,90,-99.99,,,-99.99,,2013-05-18 19:32:00,
2013-05-18 15:42:00,58.0,55.0,30.30,NNW,332,0.0,5.0,90,-99.99,,,-99.99,,2013-05-18 19:42:00,
2013-05-18 15:52:00,58.0,55.0,30.30,NNW,332,0.0,5.0,90,-99.99,,,-99.99,,2013-05-18 19:52:00,
2013-05-18 16:00:00,57.0,55.0,30.30,NNW,347,3.0,4.0,94,-99.99,,,-99.99,,2013-05-18 20:00:00,
2013-05-18 16:22:00,57.0,55.0,30.30,NNW,347,3.0,4.0,94,-99.99,,,-99.99,,2013-05-18 20:22:00,
2013-05-18 16:32:00,57.0,55.0,30.30,NNW,347,3.0,4.0,94,-99.99,,,-99.99,,2013-05-18 20:32:00,
2013-05-18 16:42:00,57.0,55.0,30.30,NNW,347,3.0,4.0,94,-99.99,,,-99.99,,2013-05-18 20:42:00,
2013-05-18 16:52:00,57.0,55.0,30.30,NNW,347,3.0,4.0,94,-99.99,,,-99.99,,2013-05-18 20:52:00,
2013-05-18 17:00:00,57.0,55.0,30.30,NNW,338,0.0,5.0,95,-99.99,,,-99.99,,2013-05-18 21:00:00,
2013-05-18 17:33:00,57.0,55.0,30.30,NNW,338,0.0,5.0,95,-99.99,,,-99.99,,2013-05-18 21:33:00,
2013-05-18 17:44:00,57.0,55.0,30.30,NNW,338,0.0,5.0,95,-99.99,,,-99.99,,2013-05-18 21:44:00,
2013-05-18 17:53:00,57.0,55.0,30.30,NNW,338,0.0,5.0,95,-99.99,,,-99.99,,2013-05-18 21:53:00,
2013-05-18 18:00:00,56.0,55.0,30.27,NNW,336,0.0,7.0,95,-99.99,,,-99.99,,2013-05-18 22:00:00,
2013-05-18 18:23:00,56.0,55.0,30.27,NNW,336,0.0,7.0,95,-99.99,,,-99.99,,2013-05-18 22:23:00,
2013-05-18 18:33:00,56.0,55.0,30.27,NNW,336,0.0,7.0,95,-99.99,,,-99.99,,2013-05-18 22:33:00,
2013-05-18 18:42:00,56.0,55.0,30.27,NNW,336,0.0,7.0,95,-99.99,,,-99.99,,2013-05-18 22:42:00,
2013-05-18 18:53:00,56.0,55.0,30.27,NNW,336,0.0,7.0,95,-99.99,,,-99.99,,2013-05-18 22:53:00,
2013-05-18 19:00:00,56.0,54.0,30.30,SSE,162,1.0,10.0,92,-99.99,,,-99.99,,2013-05-18 23:00:00,
2013-05-18 19:22:00,56.0,54.0,30.30,SSE,162,1.0,10.0,92,-99.99,,,-99.99,,2013-05-18 23:22:00,
2013-05-18 19:32:00,56.0,54.0,30.30,SSE,162,1.0,10.0,92,-99.99,,,-99.99,,2013-05-18 23:32:00,
2013-05-18 19:42:00,56.0,54.0,30.30,SSE,162,1.0,10.0,92,-99.99,,,-99.99,,2013-05-18 23:42:00,
2013-05-18 19:53:00,56.0,54.0,30.30,SSE,162,1.0,10.0,92,-99.99,,,-99.99,,2013-05-18 23:53:00,
2013-05-18 20:00:00,55.0,54.0,30.30,ENE,60,1.0,4.0,96,-99.99,,,-99.99,,2013-05-19 00:00:00,
2013-05-18 20:22:00,55.0,54.0,30.30,ENE,60,1.0,4.0,96,-99.99,,,-99.99,,2013-05-19 00:22:00,
2013-05-18 20:32:00,55.0,54.0,30.30,ENE,60,1.0,4.0,96,-99.99,,,-99.99,,2013-05-19 00:32:00,
2013-05-18 20:42:00,55.0,54.0,30.30,ENE,60,1.0,4.0,96,-99.99,,,-99.99,,2013-05-19 00:42:00,
2013-05-18 20:52:00,55.0,54.0,30.30,ENE,60,1.0,4.0,96,-99.99,,,-99.99,,2013-05-19 00:52:00,
2013-05-18 21:00:00,54.0,53.0,30.30,North,353,0.0,3.0,98,-99.99,,,-99.99,,2013-05-19 01:00:00,
2013-05-18 21:22:00,54.0,53.0,30.30,North,353,0.0,3.0,98,-99.99,,,-99.99,,2013-05-19 01:22:00,
2013-05-18 21:32:00,54.0,53.0,30.30,North,353,0.0,3.0,98,-99.99,,,-99.99,,2013-05-19 01:32:00,
2013-05-18 21:42:00,54.0,53.0,30.30,North,353,0.0,3.0,98,-99.99,,,-99.99,,2013-05-19 01:42:00,
2013-05-18 21:52:00,54.0,53.0,30.30,North,353,0.0,3.0,98,-99.99,,,-99.99,,2013-05-19 01:52:00,
2013-05-18 22:00:00,54.0,53.0,30.30,West,277,0.0,5.0,98,-99.99,,,-99.99,,2013-05-19 02:00:00,
2013-05-18 22:22:00,54.0,53.0,30.30,West,277,0.0,5.0,98,-99.99,,,-99.99,,2013-05-19 02:22:00,
2013-05-18 22:32:00,54.0,53.0,30.30,West,277,0.0,5.0,98,-99.99,,,-99.99,,2013-05-19 02:32:00,
2013-05-18 22:42:00,54.0,53.0,30.30,West,277,0.0,5.0,98,-99.99,,,-99.99,,2013-05-19 02:42:00,
2013-05-18 22:52:00,54.0,53.0,30.30,West,277,0.0,5.0,98,-99.99,,,-99.99,,2013-05-19 02:52:00,
2013-05-18 23:00:00,53.0,53.0,30.30,North,352,0.0,6.0,98,-99.99,,,-99.99,,2013-05-19 03:00:00,
2013-05-18 23:22:00,53.0,53.0,30.30,North,352,0.0,6.0,98,-99.99,,,-99.99,,2013-05-19 03:22:00,
2013-05-18 23:33:00,53.0,53.0,30.30,North,352,0.0,6.0,98,-99.99,,,-99.99,,2013-05-19 03:33:00,
2013-05-18 23:43:00,53.0,53.0,30.30,North,352,0.0,6.0,98,-99.99,,,-99.99,,2013-05-19 03:43:00,
2013-05-18 23:53:00,53.0,53.0,30.30,North,352,0.0,6.0,98,-99.99,,,-99.99,,2013-05-19 03:53:00,